Weather History for KTVL - March, 2012

Change the Weather History Date:

Friday, March 30, 2012

  Actual Average Record
Temperature  
Mean Temperature 49 °F 38 °F  
Max Temperature 60 °F 51 °F 71 °F (2015)
Min Temperature 38 °F 24 °F 5 °F (1981)
Degree Days  
Heating Degree Days 16 28  
Month to date heating degree days 848 889  
Since 1 July heating degree days 5510 6126  
Cooling Degree Days 0 0  
Month to date cooling degree days 0 0  
Year to date cooling degree days 0 0  
Moisture  
Dew Point 35 °F    
Average Humidity 61    
Maximum Humidity 79    
Minimum Humidity 43    
Precipitation  
Precipitation T in - 1.49 in (1940)
Month to date precipitation 3.52  
Year to date precipitation 8.45  
Sea Level Pressure  
Sea Level Pressure 29.98 in    
Wind  
Wind Speed 13 mph (SSW)    
Max Wind Speed 21 mph    
Max Gust Speed 28 mph    
Visibility 10 miles    
Events Rain    
T = Trace of Precipitation, MM = Missing Value Source: NWS Daily Summary

Daily Weather History Graph

Daily Weather History Graph

Search for Another Location

Airport or City:

Trip Planner

Search our weather history database for the weather conditions in past years. The results will help you decide how hot, cold, wet, or windy it might be!

Date:

Astronomy

Mar. 30, 2012 Rise Set
Actual Time 6:46 AM PDT 7:22 PM PDT
Civil Twilight 6:20 AM PDT 7:49 PM PDT
Nautical Twilight 5:48 AM PDT 8:20 PM PDT
Astronomical Twilight 5:16 AM PDT 8:53 PM PDT
Moon 11:59 AM PDT (3/30) 1:59 AM PDT (3/30)
Length of Visible Light 13h 29m
Length of Day
12h 35m
Waxing Crescent, 50% of the Moon is Illuminated
Mar 30
Waxing Crescent
Mar 30
First Quarter
Apr 6
Full
Apr 13
Last Quarter
Apr 21
New

Hourly Weather History & Observations

Time (PDT) Temp. Windchill Dew Point Humidity Pressure Visibility Wind Dir Wind Speed Gust Speed Precip Events Conditions
12:53 AM 41.0 °F 33.1 °F 30.0 °F 65% 30.03 in 10.0 mi South 15.0 mph 23.0 mph 0.00 in Rain Light Rain
1:22 AM 41.0 °F 33.1 °F 30.2 °F 65% 30.12 in 10.0 mi SSW 15.0 mph 23.0 mph 0.00 in Rain Light Rain
1:46 AM 39.2 °F 30.8 °F 30.2 °F 70% 30.11 in 10.0 mi South 15.0 mph 21.9 mph 0.00 in Rain Light Rain
1:53 AM 39.9 °F 32.9 °F 30.9 °F 70% 30.04 in 10.0 mi South 11.5 mph - 0.00 in   Overcast
2:50 AM 39.2 °F 30.8 °F 30.2 °F 70% 30.11 in 10.0 mi South 15.0 mph - 0.00 in Rain Light Rain
2:53 AM 39.0 °F 30.6 °F 30.9 °F 73% 30.04 in 10.0 mi South 15.0 mph - 0.00 in Rain Light Rain
3:53 AM 39.0 °F 31.4 °F 30.9 °F 73% 30.03 in 10.0 mi SSW 12.7 mph - 0.00 in   Overcast
4:53 AM 39.2 °F 32.5 °F 33.8 °F 81% 30.09 in 10.0 mi SSW 10.4 mph - N/A   Overcast
5:53 AM 39.0 °F 31.0 °F 33.1 °F 79% 30.02 in 10.0 mi South 13.8 mph - 0.00 in Rain Light Rain
6:53 AM 39.9 °F 32.5 °F 33.1 °F 77% 30.02 in 10.0 mi South 12.7 mph - 0.00 in Rain Light Rain
7:31 AM 42.8 °F 36.6 °F 32.0 °F 66% 30.09 in 10.0 mi SSW 11.5 mph - N/A   Overcast
7:53 AM 43.0 °F 37.7 °F 33.1 °F 68% 30.03 in 10.0 mi South 9.2 mph - N/A   Overcast
8:18 AM 44.6 °F 39.7 °F 35.6 °F 71% 30.09 in 10.0 mi South 9.2 mph - N/A   Overcast
8:32 AM 44.6 °F 39.7 °F 35.6 °F 71% 30.09 in 10.0 mi SSW 9.2 mph - N/A   Overcast
8:53 AM 46.0 °F 41.0 °F 35.1 °F 66% 30.01 in 10.0 mi South 10.4 mph - N/A   Scattered Clouds
9:53 AM 51.1 °F - 37.0 °F 59% 29.99 in 10.0 mi South 13.8 mph 19.6 mph N/A   Mostly Cloudy
10:53 AM 53.6 °F - 35.6 °F 51% 30.08 in 10.0 mi South 17.3 mph 25.3 mph N/A   Overcast
11:53 AM 54.0 °F - 36.0 °F 51% 29.97 in 10.0 mi South 17.3 mph 24.2 mph N/A   Overcast
12:53 PM 54.0 °F - 37.0 °F 53% 29.97 in 10.0 mi South 5.8 mph - N/A   Overcast
1:53 PM 55.9 °F - 37.0 °F 49% 29.95 in 10.0 mi South 11.5 mph 27.6 mph N/A   Overcast
2:53 PM 57.9 °F - 37.0 °F 46% 29.92 in 10.0 mi SSW 17.3 mph 24.2 mph N/A   Partly Cloudy
3:53 PM 57.9 °F - 36.0 °F 44% 29.89 in 10.0 mi South 10.4 mph 18.4 mph N/A   Scattered Clouds
4:53 PM 57.9 °F - 37.0 °F 46% 29.88 in 10.0 mi SSW 12.7 mph 16.1 mph N/A   Mostly Cloudy
5:53 PM 55.0 °F - 37.9 °F 53% 29.88 in 10.0 mi South 15.0 mph 21.9 mph N/A   Overcast
6:53 PM 53.1 °F - 37.9 °F 57% 29.88 in 10.0 mi SW 10.4 mph 21.9 mph N/A   Overcast
7:53 PM 50.0 °F - 37.9 °F 63% 29.88 in 10.0 mi SSW 8.1 mph 20.7 mph N/A   Overcast
8:53 PM 50.0 °F - 37.9 °F 63% 29.87 in 10.0 mi SSW 8.1 mph - N/A   Overcast
9:53 PM 48.9 °F - 37.0 °F 64% 29.85 in 10.0 mi South 9.2 mph - N/A   Overcast
10:53 PM 48.0 °F - 36.0 °F 63% 29.82 in 10.0 mi South 11.5 mph 20.7 mph N/A   Overcast
11:53 PM 48.0 °F - 34.0 °F 58% 29.80 in 10.0 mi SSW 12.7 mph 24.2 mph N/A   Clear